AirNav   Everest Fuels
 
 1634 users online  

49R Real County Airport
Leakey, Texas, USA

GOING TO LEAKEY?


FAA INFORMATION EFFECTIVE 19 MAY 2022

Location

FAA Identifier: 49R
Lat/Long: 29-44-43.8040N 099-45-39.2130W
29-44.730067N 099-45.653550W
29.7455011,-99.7608925
(estimated)
Elevation: 1640 ft. / 500 m (estimated)
Variation: 08E (1985)
From city: 1 mile N of LEAKEY, TX
Time zone: UTC -5 (UTC -6 during Standard Time)
Zip code: 78873

Airport Operations

Airport use: Open to the public
Activation date: 03/1976
Control tower: no
ARTCC: HOUSTON CENTER
FSS: SAN ANGELO FLIGHT SERVICE STATION
NOTAMs facility: SJT (NOTAM-D service available)
Attendance: UNATNDD
Wind indicator: yes
Segmented circle: yes
Lights: SS-SR

Airport Communications

CTAF: 122.9

Nearby radio navigation aids

VOR radial/distance  VOR name  Freq  Var
CSIr242/30.4CENTER POINT VORTAC117.5008E
RSGr110/32.4ROCKSPRINGS VORTAC114.5510E

Airport Services

Parking: tiedowns

Runway Information

Runway 15/33

Dimensions: 3975 x 50 ft. / 1212 x 15 m
Surface: asphalt, in good condition
Weight bearing capacity: 
Single wheel: 11.0
Runway edge lights: non-standard
NSTD LIRL DUE TO COLOR. LIRL OTS INDEF.
RUNWAY 15  RUNWAY 33
Traffic pattern: leftleft
Displaced threshold: 240 ft.
DSPLCD THR UNLGTD.
270 ft.
DSPLCD THR UNLGTD.
Markings: basic, in good conditionbasic, in good condition
Obstructions: 20 ft. trees, 200 ft. from runway
+20 FT-30 FT TREES 0 FT-200 FT FM THR, ACRS THR.
35 ft. trees, 200 ft. from runway
15 FT ROAD 70 FT FM THR ACRS EXTDD CNTRLN, 2 FT PIPE GATE AT THR ACRS CNTRLN.

Airport Ownership and Management from official FAA records

Ownership: Privately-owned
COUNTY LEASES RWY, TWY, APRON & ENTRANCE RD.
Owner: JOE NICHOLS
P.O. BOX 1356
LEAKEY, TX 78873
Phone 210-260-6549
Manager: BELLA RUBIO
PO BOX 446
LEAKEY, TX 78873
Phone 830-232-5304
COUNTY JUDGE.

Airport Operational Statistics

Aircraft based on the field: 4
Single engine airplanes: 4
    
Aircraft operations: avg 23/week *
67% local general aviation
33% transient general aviation
* for 12-month period ending 14 May 2021

Additional Remarks

+4 FT FENCE 60 FT WEST RWY CNTRLN FULL LEN RWY.
+4 FT FENCE 100 FT EAST RWY CNTRLN FROM RWY 15 THR SOUTH TO NORTH TWY.
DO NOT USE TURF TWY FROM APRON TO RWY 33 END.
ULTRALIGHT ACT ADJ TO RWY.
FOR CD CTC LAUGHLIN APCH AT 830-298-5192, WHEN APCH CLSD CTC HOUSTON ARTCC AT 281-230-5622.

Instrument Procedures

There are no published instrument procedures at 49R.

Some nearby airports with instrument procedures:

KECU - Edwards County Airport (25 nm NW)
KUVA - Garner Field Airport (32 nm S)
KERV - Kerrville Municipal Airport/Louis Schreiner Field (38 nm E)
KHDO - South Texas Regional Airport at Hondo (38 nm SE)
KJCT - Kimble County Airport (46 nm N)
 
Loc | Ops | Rwys | IFR | FBO | Links
Com | Nav | Svcs | Stats | Notes
Area around 49R (Real County Airport)
 
Road maps at: MapQuest Bing Google
 
Aerial photo
WARNING: Photo may not be current or correct
Aerial photo of 49R (Real County Airport)
Photo by Tim Ingram
Taken in May 2006

Do you have a better or more recent aerial photo of Real County Airport that you would like to share? If so, please send us your photo.

 
Sectional chart

 
Airport distance calculator
Flying to Real County Airport? Find the distance to fly.

From to 49R

Sunrise and sunset
Times for 24-May-2022
 Local
(UTC-5)
 Zulu
(UTC)
Morning civil twilight06:1611:16
Sunrise06:4211:42
Sunset20:2901:29
Evening civil twilight20:5601:56

Current date and time
Zulu (UTC)  24-May-2022 14:40:30
Local (UTC-5)  24-May-2022 09:40:30
 
METAR
KECU 
25nm NW 
241410Z AUTO 21013G20KT 10SM BKN014 OVC019 20/16 A2985 RMK AO2
KUVA 
32nm S 
241415Z AUTO 26008KT 10SM BKN020 BKN025 21/18 A2981 RMK AO2 T02120181
KERV 
38nm E 
241415Z AUTO 18009KT 10SM CLR 22/16 A2981 RMK AO2 T02160161
KHDO 
38nm SE 
241351Z AUTO 00000KT 10SM CLR 22/18 A2979 RMK AO2 SLP075 T02170178
KJCT 
45nm N 
241251Z AUTO 16003KT 10SM CLR 21/18 A2978 RMK AO2 SLP049 T02110183 $
TAF
KJCT 
45nm N 
241120Z 2412/2512 16008KT P6SM BKN015 TEMPO 2412/2416 SCT015 FM241600 19013G20KT P6SM SCT040 FM250000 17010KT P6SM VCTS SCT050CB FM250300 36007KT P6SM VCTS BKN040CB FM250600 36006KT P6SM BKN250
NOTAMs
Click for the latest NOTAMs
NOTAMs are issued by the DoD/FAA and will open in a separate window not controlled by AirNav.

 

 
 

Would you like to see your business listed on this page?

 If your business provides an interesting product or service to pilots, flight crews, aircraft, or users of the Real County Airport, you should consider listing it here.  To start the listing process, click on the button below
 
Add a business
 

Other Pages about Real County Airport

Update a link
 
Copyright © AirNav, LLC. All rights reserved. Privacy Policy  Contact